Tracking 30101 objects as of 14-Dec-2024
HD Live streaming from Space Station
objects crossing your sky now

LES 9

Track LES 9 now!
LES 9 is classified as:


NORAD ID: 8747
Int'l Code: 1976-023B
Perigee: 35,686.8 km
Apogee: 35,901.3 km
Inclination: 21.3 °
Period: 1,436.1 minutes
Semi major axis: 42165 km
RCS: 3.1777 m2 (large)
Launch date: March 15, 1976
Source: United States (US)
Launch site: AIR FORCE EASTERN TEST RANGE (AFETR)

Original purpose was "Air Force sponsored program in space communications"; nuclear-powered; circuits jam-resistant to operate in hostile environment.
Your satellite tracking list
Your tracking list is empty




NASA's NSSDC Master Catalog

Two Line Element Set (TLE):
1  8747U 76023B   24349.21637803 -.00000097  00000-0  00000+0 0  9992
2  8747  21.3267  44.0680 0025437 165.0463 204.1619  1.00270819124151
Source of the keplerian elements: AFSPC